Погода в Новой Маячке

Украина / Херсонская область     46°36′12″N   33°13′41″E
темп.,
°C
ветер,
м/с
пор.,
м/с
влажн.,
%
обл.,
%
осадки,
мм/ч
давл.,
гПа
погр.,
м
17 апреля, сб
сб1700:00+5юз37905 0.0 1019142
03:00+5юз37945 0.0 1020138
06:00+4юз33935 0.0 102036
09:00+10юз35672 0.0 1021620
12:00+14юз55415 0.0 10211789
15:00+15юз653862 0.0 10201815
18:00+13юз43416 0.0 10201178
21:00+8ююз33595 0.0 102118
18 апреля, вс
вс1800:00+7в226473 0.0 102012
03:00+6всв2274100 0.0 102026
06:00+6в347394 0.0 101969
09:00+10вюв465877 0.0 1019513
12:00+14вюв454150 0.0 10181288
15:00+15юв545267 0.0 10171421
18:00+13юв556784 0.0 1016615
21:00+10юв4782100 0.0 1017258
19 апреля, пн
пн1900:00+9юв2388100 0.0 1017139
03:00+9всв1286100 0.0 1015109
06:00+9всв2488100 0.1 1015146
09:00+10в358495 0.1 1014318
12:00+15всв446358 0.0 10131014
15:00+14вюв3471100 0.1 1012646
18:00+14вюв2474100 0.1 1011435
21:00+11в3888100 0.1 1008327
20 апреля, вт
вт2000:00+10в51094100 1.9 1006480
03:00+10вюв5997100 7.1 1001430
06:00+11ююв61397100 6.7 998713
09:00+11ююз81395100 7.3 997796
12:00+12ю10137983 0.2 9951112
15:00+12зюз5774100 0.4 9931102
18:00+9зсз121785100 0.9 10011412
21:00+9з9158291 1.0 1007633
21 апреля, ср
ср2100:00+8зюз61381100 0.0 1010409
03:00+7юз41085100 0.0 1012225
06:00+7юз489054 0.0 1013136
09:00+12зюз4666100 0.0 1015557
12:00+15юз4651100 0.0 10161733
15:00+16юз675246 0.8 10161739
18:00+13юз79595 0.3 1017899
21:00+8ююз49885 0.3 1019189